Location: *
(40.7873°S, 98.7174°E)
Time: 09:39:24
(UTC+00:00)

GPS 2-04 Rocket1 - Pass Details

Date: 24 May 2022
Orbit: 404 x 513 km, 35.6° (Epoch: 04 July)

Event Time Altitude Azimuth Distance (km) Brightness Sun altitude
Rises 11:40:38 0° 280° (W) 2,526 8.0 -16.8°
Reaches altitude 10° 11:42:58 10° 288° (WNW) 1,626 6.5 -17.3°
Maximum altitude 11:46:23 35° 355° (N) 754 3.6 -17.9°
Enters shadow 11:47:39 26° 37° (NE) 918 3.7 -18.1°
